Wind_Speed
5 5 5 7 6 5 4 4 2 3 4 4 4 3 3 3 3 3 3 3 3 3 3 2 2 2 1 1 1 1 1 1 0 0 1 1 1 1 1 1 1 1 1 2 2 3 3 3 3
4 5 5 6 6 4 3 3 3 3 3 3 3 2 2 2 2 3 3 3 3 3 2 1 1 1 0 0 0 1 1 1 1 1 2 2 2 2 2 2 2 2 2 2 2 3 4 4 4
4 5 5 5 5 4 3 3 3 2 2 2 1 1 1 1 2 2 2 2 3 2 1 1 1 1 1 1 2 2 2 2 3 3 3 3 3 3 3 3 3 3 3 3 3 4 4 4 5
4 5 5 5 5 5 4 3 3 3 2 1 1 1 1 1 1 1 2 2 3 2 1 0 1 1 2 2 3 3 4 4 4 4 4 5 4 4 4 4 4 4 4 4 4 4 4 5 5
4 5 5 4 4 4 4 4 4 4 3 2 2 2 2 2 2 2 3 3 2 2 1 1 1 2 3 3 4 4 4 5 4 5 6 5 5 5 5 5 5 5 5 4 4 5 5 5 6
5 5 5 5 5 4 4 5 5 4 4 4 3 3 3 3 3 4 3 4 3 3 2 2 3 4 4 4 5 5 6 6 6 6 6 6 6 6 6 6 6 5 5 5 5 5 5 6 6
5 5 5 5 5 5 4 4 5 5 6 5 5 5 5 5 5 5 5 5 4 4 4 4 4 5 5 5 6 6 6 7 7 7 7 7 6 6 6 6 6 7 6 6 6 6 6 7 7
5 6 6 5 6 6 5 5 6 5 6 6 6 6 6 6 6 6 6 6 5 5 5 5 5 5 6 7 7 7 8 8 8 8 8 8 8 7 7 7 8 7 7 6 6 7 7 7 7
6 6 6 6 6 6 6 6 6 6 5 5 6 6 6 6 6 6 7 7 7 7 7 7 6 7 7 8 8 8 8 9 9 9 8 9 9 9 8 8 8 8 8 8 8 8 8 8 8
7 7 7 7 7 6 6 7 6 6 6 6 6 6 7 7 7 7 7 8 8 8 8 8 8 8 8 8 8 8 8 9 9 9 9 9 10 10 9 9 9 9 8 8 8 8 8 8 8
8 8 8 8 7 7 7 7 7 7 7 7 7 7 8 8 8 8 9 8 8 8 8 9 9 9 9 8 8 8 8 9 9 10 10 10 10 10 10 10 9 9 9 8 8 8 8 8 8
8 9 9 8 8 8 8 8 8 8 8 7 7 8 8 8 8 8 8 8 8 9 9 10 10 10 9 9 9 9 9 9 10 11 10 10 11 11 10 10 10 10 9 8 8 8 8 8 8
8 8 9 9 9 9 8 8 9 9 8 7 7 7 8 8 8 9 9 9 10 10 10 10 10 10 10 10 10 10 10 10 10 11 11 11 12 12 11 10 10 10 9 9 8 9 9 9 9
8 8 8 8 8 8 9 9 9 9 9 8 8 8 8 9 9 8 9 10 10 10 11 10 10 10 10 10 11 11 11 11 10 10 11 11 11 11 11 10 10 10 9 9 9 9 10 10 9
8 8 8 8 9 9 9 10 10 10 9 9 9 9 9 9 9 9 9 9 10 10 10 10 11 11 11 10 10 11 11 11 12 11 11 12 12 11 11 11 11 10 10 9 9 10 10 10 10
9 9 10 10 10 10 10 10 10 11 10 10 9 9 10 10 10 10 10 10 10 11 11 11 11 12 11 11 11 11 11 11 11 12 12 12 11 11 12 11 11 11 10 9 9 11 11 11 10
9 9 10 10 10 10 9 10 10 11 11 10 10 10 10 10 10 11 11 11 11 12 12 11 12 12 12 12 12 11 12 11 11 11 12 12 12 12 12 12 11 11 10 10 11 12 12 11 11
9 8 9 10 10 9 8 9 9 10 10 10 10 10 10 10 11 11 11 11 12 12 12 11 11 12 13 12 12 11 11 12 12 12 12 12 12 12 12 12 12 12 11 11 11 12 12 12 12
9 8 9 9 9 9 8 8 8 9 10 10 10 11 11 11 11 10 11 11 11 12 12 12 11 11 12 12 12 12 12 12 12 12 12 11 11 11 12 12 12 12 12 12 13 12 12 13 13
9 8 8 8 8 8 8 8 8 8 9 9 10 10 11 11 11 11 11 11 11 11 11 11 11 11 11 12 11 12 12 12 12 12 12 12 12 11 12 12 12 12 12 12 13 13 13 13 13
8 8 8 8 8 8 8 8 8 8 9 9 9 9 10 10 11 11 11 11 11 11 11 11 12 12 12 12 12 12 11 12 12 12 12 12 12 12 12 13 13 12 12 12 13 13 13 13 12
8 8 9 8 8 8 8 8 8 9 9 8 8 9 9 10 11 10 10 10 11 11 11 11 12 12 13 13 13 12 12 12 11 11 12 13 13 13 13 13 13 12 12 12 12 12 13 13 12
9 9 9 9 9 9 9 9 8 9 9 8 9 9 10 10 11 11 11 11 11 11 12 12 12 13 13 13 13 12 12 12 12 12 13 13 13 13 13 13 13 13 12 13 13 13 13 13 13
10 10 10 9 9 10 10 10 9 9 9 9 9 10 10 10 11 11 11 11 11 11 12 12 12 12 12 12 12 12 12 13 13 13 13 13 13 13 13 13 14 13 13 13 13 12 12 13 13
10 10 10 10 10 11 10 11 10 9 9 9 10 10 10 11 11 12 11 11 12 12 12 12 12 12 12 12 12 12 12 12 13 13 13 13 13 14 15 15 14 13 12 13 12 12 12 12 13
10 11 12 11 11 10 10 10 10 10 10 9 10 11 11 12 12 12 12 12 12 13 13 12 12 12 12 12 11 12 12 12 12 13 13 13 14 14 13 13 13 13 12 13 13 13 12 12 13
12 13 13 13 13 13 12 11 10 10 10 10 11 11 12 12 13 13 14 13 13 13 13 13 13 13 13 12 12 12 12 12 13 13 13 13 14 14 13 13 13 13 12 12 13 13 13 13 13
13 13 14 14 14 14 14 13 12 11 12 12 12 12 12 13 13 13 13 13 12 13 13 13 14 14 13 13 13 13 13 13 14 13 13 14 14 14 14 14 14 14 13 13 13 12 13 13 14
14 14 15 15 15 16 16 14 13 14 14 14 13 13 13 13 13 13 14 14 13 13 14 14 14 14 14 14 14 14 14 14 14 14 14 14 15 15 14 14 15 14 15 14 13 13 13 14 14
16 16 16 17 17 17 18 15 14 15 15 14 14 14 14 14 14 14 14 14 14 15 14 14 14 14 14 14 14 14 14 14 14 14 14 15 15 16 16 15 15 15 15 15 14 14 14 14 14
Wind_Direction
169 170 173 178 180 179 168 153 148 147 114 99 98 97 88 84 75 65 58 54 52 55 72 97 115 109 93 82 77 72 38 9 326 248 254 260 263 242 263 288 316 337 351 354 2 2 358 354 352
182 184 183 185 184 185 178 165 166 156 134 112 101 96 73 73 73 63 48 41 38 46 73 103 132 129 150 244 353 312 293 297 291 264 256 259 268 253 256 278 295 303 316 328 337 345 343 341 343
195 195 199 188 190 194 193 201 199 172 137 126 121 94 37 38 49 45 26 26 28 32 54 89 178 200 228 259 269 265 269 276 274 262 254 258 258 250 259 271 283 286 294 309 321 329 333 333 334
203 207 205 195 203 206 209 212 201 205 191 174 239 251 292 319 337 359 357 5 12 12 11 348 272 251 248 258 270 269 276 274 270 263 255 259 260 264 272 273 281 279 285 294 309 318 324 327 328
212 214 212 207 206 208 219 232 217 218 225 234 248 253 265 279 299 318 337 340 345 339 331 307 300 287 274 268 280 282 285 281 272 268 263 262 266 272 273 276 282 278 277 282 295 305 313 319 320
222 223 219 214 210 214 224 229 226 235 244 251 258 263 263 275 288 298 319 326 323 311 295 283 281 280 278 276 275 279 277 276 277 273 265 264 267 271 271 274 280 278 278 282 291 297 307 315 316
232 233 230 228 221 227 228 236 248 255 257 257 265 271 269 272 281 286 294 306 300 292 288 282 281 281 275 273 275 274 273 272 271 265 265 267 269 275 280 281 281 277 279 282 287 293 303 310 311
238 240 236 234 230 234 237 243 252 259 263 262 263 270 266 267 275 280 284 289 284 275 279 284 279 279 275 273 275 275 274 272 268 265 264 263 268 273 278 282 282 276 276 279 285 291 297 306 309
246 242 243 246 243 240 240 248 254 263 271 274 272 272 274 272 274 277 279 284 282 273 273 278 279 279 279 277 276 275 272 270 267 265 263 262 266 270 276 281 278 273 277 283 285 289 293 303 305
251 253 251 252 250 246 248 252 258 265 270 278 280 278 279 281 277 277 277 278 280 278 274 275 280 279 278 278 277 277 274 265 260 261 264 264 266 269 276 278 276 276 279 284 286 293 295 298 300
256 256 257 257 253 255 258 258 261 266 270 277 280 281 281 283 282 277 275 273 273 273 273 275 275 274 275 276 278 275 275 269 262 262 267 269 272 274 279 279 272 277 278 281 282 289 293 295 298
260 260 257 258 261 259 262 262 262 265 270 273 278 282 284 287 285 277 273 274 271 268 271 273 274 271 274 275 276 276 275 272 264 263 265 268 269 273 275 274 273 274 273 275 279 286 288 291 294
266 263 261 264 266 268 266 264 266 266 270 273 277 280 281 285 286 279 279 277 272 268 267 271 271 272 276 275 274 275 274 271 265 263 264 268 267 266 268 268 269 270 272 275 278 283 287 288 290
266 263 262 264 266 268 267 267 268 269 271 273 274 278 279 279 279 278 278 278 277 273 268 268 272 273 273 275 272 273 277 276 273 270 269 268 267 266 267 270 272 272 272 275 280 285 286 285 287
265 265 265 264 264 265 267 267 269 271 273 273 273 277 278 278 276 276 278 278 278 278 276 275 276 276 278 276 274 275 276 274 273 274 271 270 268 268 269 269 272 275 273 274 281 287 285 285 287
266 264 266 268 268 265 264 267 268 270 273 273 273 274 273 273 274 273 273 275 277 280 280 276 278 278 277 275 274 275 275 275 275 273 268 268 268 268 270 273 276 275 275 274 278 284 286 286 288
267 264 265 267 267 265 266 265 267 269 272 275 274 273 272 271 272 273 273 273 275 276 276 275 276 279 278 273 273 275 275 273 273 273 270 270 267 267 271 273 275 274 273 274 279 282 284 285 286
268 265 265 266 264 261 267 267 268 271 272 273 272 271 272 273 273 273 274 275 276 276 276 275 276 278 282 278 271 272 274 272 272 273 273 270 267 268 270 272 274 273 272 274 280 281 282 284 286
266 265 268 269 265 265 270 274 270 272 275 274 272 270 269 270 272 274 278 279 278 279 279 278 277 280 281 279 271 272 275 271 269 271 270 268 267 267 268 270 273 272 274 276 279 279 281 282 284
271 272 273 271 269 270 273 276 272 271 277 278 274 271 270 270 273 273 276 277 279 278 277 280 278 278 280 282 275 273 275 272 270 270 268 267 267 266 267 269 269 270 273 277 279 280 282 282 281
271 273 275 275 276 279 280 277 278 275 278 277 275 274 273 271 270 272 272 275 279 280 279 279 280 276 277 280 279 277 274 271 269 269 266 265 267 267 267 270 269 270 271 275 276 276 279 282 282
272 277 279 277 275 277 283 284 283 280 279 281 282 280 278 275 274 274 275 276 276 278 280 280 279 276 274 274 276 273 270 270 268 270 269 266 267 269 270 268 267 268 273 275 277 279 281 282 282
270 275 273 273 273 274 279 282 285 284 283 282 284 285 286 285 284 281 281 279 276 277 278 280 277 276 274 272 274 272 269 269 268 269 270 268 267 268 269 269 268 269 271 275 276 278 278 279 283
267 268 269 270 273 275 278 283 292 290 288 286 284 286 288 287 286 284 284 281 278 277 278 278 275 275 274 273 273 272 269 267 267 266 268 268 267 267 268 268 271 271 271 275 276 278 279 280 282
266 269 269 271 273 278 280 284 293 298 292 287 285 287 286 284 286 287 284 283 280 276 275 274 272 274 274 273 272 271 268 264 263 264 268 269 269 267 267 269 270 270 272 275 276 278 281 280 282
265 270 270 273 278 282 284 288 289 293 294 290 285 284 283 282 283 286 287 284 280 278 275 272 271 273 273 270 269 267 265 263 263 265 268 270 269 268 266 269 270 270 270 272 276 277 281 280 280
269 269 269 272 278 279 282 284 283 286 288 289 286 284 284 283 283 283 283 283 279 277 275 273 271 271 270 269 267 264 265 264 263 265 268 271 269 268 268 271 272 273 270 272 274 276 278 278 281
269 271 271 271 275 279 283 284 284 286 287 287 287 285 285 283 286 285 283 282 279 275 272 272 269 268 268 270 267 264 262 263 264 265 267 271 271 270 268 268 270 269 267 271 275 277 278 279 281
271 271 267 270 274 278 281 284 285 285 286 287 286 284 283 281 285 285 285 284 282 279 275 271 269 268 268 269 266 264 263 264 264 263 267 269 270 270 269 270 269 270 271 270 272 276 280 282 282
269 272 271 270 272 275 277 281 282 284 283 284 283 283 282 279 280 282 283 284 283 281 278 273 268 267 268 268 267 266 263 263 264 263 267 269 269 268 268 269 270 270 270 270 271 273 276 279 280
Height
5893 5894 5895 5896 5897 5897 5897 5897 5896 5897 5898 5898 5898 5898 5898 5898 5899 5901 5898 5896 5896 5896 5895 5895 5895 5895 5895 5895 5896 5896 5896 5895 5895 5895 5895 5895 5895 5895 5894 5894 5894 5893 5893 5892 5891 5891 5890 5889 5888
5893 5894 5895 5896 5896 5896 5897 5897 5896 5897 5898 5898 5898 5898 5898 5898 5898 5898 5897 5897 5896 5896 5895 5895 5895 5896 5896 5896 5896 5896 5896 5896 5895 5895 5895 5895 5895 5895 5894 5894 5894 5893 5893 5892 5891 5891 5890 5889 5888
5893 5894 5895 5895 5895 5896 5897 5897 5896 5897 5898 5898 5898 5898 5898 5898 5898 5898 5897 5897 5896 5896 5895 5895 5895 5896 5896 5896 5896 5896 5896 5895 5895 5895 5895 5895 5894 5894 5894 5894 5893 5893 5892 5892 5891 5890 5889 5889 5888
5893 5894 5895 5895 5895 5896 5896 5896 5896 5896 5897 5898 5898 5898 5898 5898 5898 5898 5897 5897 5896 5896 5895 5895 5895 5895 5895 5896 5896 5895 5895 5895 5895 5895 5894 5894 5894 5893 5893 5893 5892 5892 5891 5891 5891 5890 5889 5888 5887
5893 5894 5894 5894 5894 5895 5895 5895 5895 5896 5896 5897 5897 5898 5898 5898 5897 5897 5897 5896 5896 5896 5895 5895 5895 5895 5895 5895 5895 5895 5895 5894 5894 5894 5894 5893 5893 5893 5892 5892 5891 5891 5891 5890 5890 5889 5888 5887 5886
5893 5893 5894 5893 5894 5894 5894 5894 5895 5895 5896 5896 5897 5897 5897 5897 5897 5896 5896 5896 5895 5895 5895 5895 5895 5895 5894 5894 5894 5894 5894 5893 5893 5893 5892 5892 5892 5892 5891 5891 5890 5890 5890 5889 5889 5888 5887 5886 5885
5892 5892 5892 5892 5893 5893 5894 5894 5894 5894 5895 5895 5896 5896 5895 5896 5895 5895 5895 5895 5894 5894 5894 5894 5894 5894 5894 5893 5893 5893 5893 5892 5892 5892 5891 5891 5891 5891 5890 5890 5889 5889 5888 5888 5887 5887 5886 5885 5884
5891 5892 5891 5891 5892 5892 5892 5893 5893 5893 5893 5894 5894 5894 5894 5894 5894 5894 5893 5893 5893 5893 5893 5893 5893 5893 5892 5892 5892 5892 5891 5891 5890 5890 5890 5890 5890 5889 5889 5888 5888 5887 5887 5886 5886 5885 5885 5884 5883
5890 5891 5890 5890 5891 5891 5891 5891 5892 5891 5892 5892 5892 5893 5893 5893 5892 5892 5892 5892 5891 5891 5891 5891 5891 5891 5891 5890 5890 5890 5889 5889 5889 5889 5888 5888 5888 5888 5887 5887 5886 5886 5885 5885 5884 5884 5883 5882 5881
5888 5889 5889 5889 5889 5889 5889 5890 5890 5890 5890 5890 5890 5891 5890 5890 5890 5890 5890 5890 5890 5890 5890 5890 5889 5889 5889 5888 5888 5888 5887 5887 5887 5887 5887 5887 5886 5886 5885 5885 5884 5884 5884 5883 5882 5882 5881 5880 5879
5887 5887 5887 5887 5887 5888 5888 5888 5888 5888 5888 5889 5889 5889 5888 5889 5888 5888 5888 5888 5888 5888 5888 5888 5888 5887 5887 5886 5886 5886 5885 5885 5885 5885 5885 5885 5884 5884 5883 5883 5883 5882 5882 5881 5881 5880 5879 5878 5877
5885 5885 5885 5885 5886 5886 5886 5886 5886 5886 5887 5887 5887 5887 5886 5886 5886 5886 5886 5886 5886 5886 5886 5886 5886 5885 5884 5884 5884 5884 5883 5883 5883 5883 5883 5882 5882 5882 5881 5881 5880 5880 5880 5879 5879 5878 5877 5876 5876
5884 5883 5883 5883 5884 5884 5884 5884 5884 5884 5884 5884 5884 5884 5884 5884 5884 5883 5883 5883 5883 5883 5883 5884 5883 5883 5883 5882 5882 5882 5881 5881 5881 5880 5880 5880 5880 5879 5879 5879 5878 5878 5877 5877 5876 5876 5875 5874 5874
5881 5881 5881 5881 5881 5881 5882 5882 5882 5882 5882 5882 5882 5882 5882 5882 5882 5881 5881 5881 5881 5881 5881 5881 5881 5880 5880 5880 5880 5879 5879 5879 5878 5878 5878 5878 5877 5877 5877 5876 5876 5875 5875 5875 5874 5874 5873 5872 5871
5879 5879 5879 5879 5879 5879 5880 5880 5880 5879 5880 5880 5880 5879 5879 5879 5879 5879 5879 5879 5878 5878 5878 5878 5878 5877 5877 5877 5877 5876 5876 5876 5876 5875 5875 5875 5875 5874 5874 5874 5873 5873 5872 5872 5872 5871 5871 5870 5869
5877 5877 5877 5877 5877 5877 5879 5878 5877 5877 5877 5877 5877 5877 5877 5876 5876 5876 5876 5876 5876 5875 5875 5875 5875 5874 5874 5874 5874 5874 5873 5873 5873 5872 5872 5872 5872 5872 5872 5871 5871 5870 5870 5870 5869 5869 5868 5868 5867
5875 5875 5874 5875 5874 5874 5875 5875 5874 5874 5874 5874 5874 5874 5874 5874 5874 5873 5873 5873 5873 5872 5872 5872 5872 5871 5871 5871 5871 5870 5870 5870 5870 5869 5869 5869 5869 5869 5869 5868 5868 5868 5868 5867 5867 5866 5866 5865 5864
5872 5872 5871 5871 5871 5871 5872 5872 5872 5871 5871 5871 5871 5871 5871 5871 5871 5870 5870 5870 5869 5869 5869 5868 5868 5868 5868 5867 5867 5867 5867 5867 5867 5866 5866 5866 5866 5866 5866 5866 5865 5865 5865 5865 5864 5864 5863 5862 5861
5869 5869 5869 5869 5868 5869 5869 5869 5869 5868 5868 5868 5868 5869 5868 5868 5867 5867 5867 5867 5866 5866 5865 5865 5865 5865 5865 5864 5864 5863 5863 5863 5863 5863 5863 5863 5863 5863 5863 5863 5863 5862 5862 5862 5861 5861 5860 5859 5858
5867 5867 5867 5867 5866 5866 5866 5867 5866 5866 5866 5866 5866 5866 5865 5865 5864 5864 5864 5863 5863 5863 5863 5862 5862 5862 5861 5861 5860 5860 5860 5860 5860 5860 5860 5860 5860 5860 5860 5860 5860 5859 5859 5859 5858 5857 5857 5856 5855
5865 5865 5864 5864 5864 5864 5864 5865 5864 5864 5863 5863 5863 5862 5862 5861 5861 5861 5860 5860 5860 5860 5860 5859 5859 5859 5858 5858 5857 5857 5857 5857 5857 5857 5857 5857 5857 5857 5857 5856 5856 5856 5856 5856 5855 5854 5854 5853 5852
5863 5862 5862 5861 5861 5861 5862 5862 5862 5861 5860 5860 5859 5859 5858 5858 5858 5857 5857 5857 5856 5856 5856 5856 5856 5855 5855 5854 5854 5854 5854 5854 5854 5854 5854 5854 5854 5854 5853 5853 5853 5853 5852 5852 5852 5851 5851 5850 5849
5860 5860 5859 5859 5859 5859 5859 5858 5859 5858 5857 5857 5856 5856 5855 5855 5854 5854 5853 5853 5853 5852 5852 5852 5852 5851 5851 5851 5850 5850 5850 5850 5850 5851 5851 5851 5850 5850 5850 5850 5850 5849 5849 5849 5848 5848 5847 5847 5846
5857 5858 5857 5856 5856 5857 5856 5855 5855 5854 5854 5853 5853 5852 5852 5851 5851 5851 5850 5849 5849 5849 5849 5848 5848 5847 5847 5847 5847 5847 5847 5847 5847 5847 5848 5848 5847 5847 5847 5846 5846 5846 5846 5845 5845 5844 5844 5843 5843
5855 5855 5855 5854 5853 5853 5853 5852 5852 5851 5850 5850 5849 5849 5849 5848 5848 5847 5847 5846 5845 5845 5845 5845 5844 5844 5844 5844 5843 5843 5844 5844 5844 5844 5845 5845 5844 5844 5844 5843 5843 5843 5842 5842 5841 5841 5841 5840 5840
5852 5852 5853 5852 5851 5850 5850 5849 5849 5848 5847 5846 5846 5846 5845 5844 5844 5844 5843 5843 5842 5841 5841 5841 5840 5840 5840 5840 5840 5840 5840 5840 5841 5841 5841 5841 5841 5841 5841 5840 5840 5839 5839 5839 5838 5838 5838 5837 5836
5849 5848 5848 5848 5847 5847 5846 5846 5846 5845 5844 5843 5842 5842 5841 5841 5840 5840 5839 5839 5838 5838 5837 5837 5837 5837 5837 5836 5836 5837 5837 5837 5837 5837 5837 5837 5837 5837 5837 5837 5837 5836 5836 5835 5835 5834 5834 5833 5833
5846 5845 5844 5844 5843 5842 5842 5842 5842 5841 5840 5840 5839 5838 5837 5837 5836 5836 5835 5834 5834 5834 5833 5833 5833 5833 5833 5833 5833 5833 5833 5834 5834 5834 5834 5834 5834 5833 5833 5833 5833 5832 5832 5831 5831 5831 5830 5829 5829
5842 5841 5840 5840 5840 5839 5838 5840 5838 5837 5836 5835 5835 5834 5834 5833 5833 5832 5831 5830 5830 5830 5829 5829 5829 5829 5829 5829 5829 5829 5829 5829 5829 5830 5829 5829 5830 5829 5829 5829 5829 5829 5828 5828 5828 5827 5827 5826 5825
5837 5837 5836 5837 5836 5834 5834 5837 5834 5833 5832 5831 5830 5830 5829 5829 5828 5828 5827 5826 5825 5825 5824 5824 5824 5824 5824 5824 5824 5825 5825 5825 5825 5825 5825 5825 5825 5825 5825 5825 5825 5824 5824 5824 5823 5823 5823 5822 5822